Regional Weather Roundup
Issued by NWS Lake Charles, LA

Home | Current Version | Previous Version | Text Only | Print | Product List | Glossary On
Versions: 1 2 3 4 5 6 7 8 9 10 11 12 13 14 15 16 17 18 19 20 21 22 23 24 25 26 27 28 29 30 31 32 33 34 35 36 37 38 39 40 41 42 43 44 45 46 47 48 49 50
000
ASUS44 KLCH 260810
RWRLCH
RWRLCH
REGIONAL WEATHER ROUNDUP
NATIONAL WEATHER SERVICE LAKE CHARLES LA
300 AM CDT TUE MAY 26 2015

Note: "fair" indicates few or no clouds below 12,000 feet with no
significant weather and/or obstructions to visibility.


ACROSS SOUTHEAST TEXAS

CITY           SKY/WX    TMP DP  RH WIND       PRES   REMARKS
BEAUMONT       CLOUDY    67  66  97 NE8       30.07F
BEAUMONT CITY  TSTM      65  65  98 CALM      30.07F
ORANGE         LGT RAIN  66  64  94 CALM      30.10S
JASPER         LGT RAIN  66  65  96 E15G21    30.01F
$$

ACROSS CENTRAL LOUISIANA

CITY           SKY/WX    TMP DP  RH WIND       PRES   REMARKS
LEESVILLE      LGT RAIN  64  63  96 SE8       30.08F FOG
FULLERTON      LGT RAIN  66  63  90 CALM      30.07F FOG
ALEXANDRIA INT HVY RAIN  64  63  96 SE6       30.07R FOG
ESLER FIELD    LGT RAIN  65  63  93 S3        30.08S
DERIDDER       RAIN      64  63  96 SE5       30.10F
OAKDALE        LGT RAIN  65  64  96 CALM      30.11R
OPELOUSAS      RAIN     N/A N/A N/A N6        30.10F
$$

ACROSS SOUTHWEST AND SOUTH CENTRAL LOUISIANA

CITY           SKY/WX    TMP DP  RH WIND       PRES   REMARKS
SULPHUR        RAIN      66  66  97 E7        30.08F
LAKE CHARLES   LGT RAIN  66  64  93 E6        30.07F
CHENNAULT INT  LGT RAIN  65  64  98 SE5       30.09F
CAMERON PHI    CLOUDY    66  64  94 E8        30.10F
DEQUINCY       LGT RAIN  64  64 100 SE5       30.07F
JENNINGS       LGT RAIN  65  64  96 NE5       30.09F
LAFAYETTE      LGT RAIN  66  63  90 N8        30.11S
NEW IBERIA     HVY RAIN  65  64  97 N8        30.11F FOG
ABBEVILLE      DRIZZLE   64  63  97 N8        30.11F
PATTERSON      CLOUDY    64  61  88 NW18G30   30.13R
SALT POINT       N/A     66  64  93 N7        30.13R
$$

SELECTED SITES ACROSS THE REGION

CITY           SKY/WX    TMP DP  RH WIND       PRES   REMARKS
HOUSTON BUSH   TSTM      67  63  87 SE8       29.97F
HOUSTON HOBBY  TSTM      68  67  96 S16G26    29.99F FOG
GALVESTON      LGT RAIN  70  67  90 NW15      30.03S
COLLEGE STAT   CLOUDY    66  65  96 SE9       29.96R
CONROE         CLOUDY    66  64  93 SE9       30.00R
HUNTSVILLE     CLOUDY    67  64  90 VRB3      29.99R
LUFKIN         CLOUDY    67  63  87 S15       30.02R
SHREVEPORT     CLOUDY    65  62  90 W6        29.96R
MONROE         LGT RAIN  64  63  96 S7        30.04S
NATCHEZ MS     CLOUDY    63  61  94 CALM      30.09R
BATON ROUGE    HVY RAIN  64  62  93 NW6       30.11R FOG
N.O. INTL ARPT MOCLDY    78  74  87 SE7       30.02F
SLIDELL        CLOUDY    76  75  97 CALM      30.02F
$$

MARINE REPORTS

STATION/POSITION TIME  TEMP    WIND        PRES    VSBY  WAVE
                       AIR SEA DIR/SP/G                  HT/PER
                 (UTC) (F)     (DEG/KT/KT) (MB)    (MI)  (FT/S)
BUOY 30 S HIGH I 0750   73 80  340/ 27/ 33 1015.8S         5/ 5
SEA RIM ST PARK  0800   66      40/  9/ 10 1018.4F
PORT ARTHUR      0700      76  200/  2/  5 1018.8F
SABINE PASS N    0700   66 78   60/  4/  5 1018.6F
TEXAS POINT      NOT AVBL
CALCASIEU PASS   0700   66 81   40/  4/  5   N/A
LK CHARLES BEACH 0700   65 78              1019.2F
MARSH ISLAND     0700   80     280/ 12/ 31   N/A           0
FRESH WATER LOCK 0700      81  300/ 20/ 29 1019.0R
AMERADA PASS     0700   80 78  160/  4/  8 1017.4R
$$


USA.gov is the U.S. government's official web portal to all federal, state and local government web resources and services.